CZ-4 DEB, 26280

Orbit data source: Space-Track

CZ-4 DEB, 26280 is space debris in SSO originally from a launch on Thu, 14 Oct 1999 UTC launched from the Taiyaun Space Center, China (TSC). Debris objects in space refer to the collection of defunct objects orbiting the Earth. Examples of debris include non-operational satellites, rocket bodies, and fragments generated from explosions, collisions, or faulty payload assembly.

Loading next visibility...
Identifier
26280, 1999-057FS
Orbit
SSO
Country
Flag of CNCN / PRC
Related business
Manufacturer
Unknown
Mission
Spacecraft
Bus & Motor
Unknown
Mass
Unknown
Launch date (UTC)
1999-10-14 (26 years ago)
Launch vehicle
Unknown
Launch site
Taiyaun Space Center, China (TSC)
Object type
Payload
Rocket body
Debris
Shape & HBR
Unknown shape, 0.1 m
Radar Cross Section
Small (<0.1 m²)

Expand to show TLE details & history
Last TLE update: 1 day ago

TLE from 1 day ago
0 CZ-4 DEB
1 26280U 99057FS  25296.07993355  .00000559  00000-0  19130-3 0  9999
2 26280  98.7584 337.1603 0085313 173.1822 241.8326 14.38244892340387
Epoch: 2025-10-23T01:55Z
TLE epoch observation values (Epoch: 2025-10-23T01:55:06.258Z)
Latitude
53.34365°
Longitude
-95.24374°
Altitude
802.176 km
Speed
7.442 km/s
True Right ascension
21h 41m 06s
True Declination
53° 10' 47"
Sunlit
Object was in daylight at epoch
Visualization orbit readout
Latitude
Unknown
Longitude
Unknown
Altitude
Unknown
Speed
Unknown
Apparent Right ascension
Unknown
Apparent Declination
Unknown
Sunlit
N/A
Visualization observer readout
Local Sidereal Time
02:14:19
Azimuth
Unknown
Elevation
Unknown
Doppler factor
Unknown
Orbital elements
Apogee altitude
822.349 km
Perigee altitude
700.53 km
Semi-major axis
7,139.577 km
Eccentricity
0.00853
Inclination
98.7584°
RAAN
337.1603°
Arg. of periapsis
173.1822°
True anomaly
240.97511°
Mean anomaly
241.8326°
Eccentric anomaly
241.40342°
Mean motion
3.59778 °/min
Orbital period
100.06 mins
BSTAR
0.0001913
Loading maneuver chart data...
Computing Atmospheric mass density...

Documentation

Showing up to 5 results
|